Location: Brabourne
(51.1333°N, 1.0000°E)
Time: 12:08:15
(UTC+00:00)

IRS-1D - Pass Details

Date: 22 October 2021
Orbit: 739 x 817 km, 98.6° (Epoch: 30 November)

Event Time Altitude Azimuth Distance (km) Brightness Sun altitude
Rises 03:17:59 0° 11° (N) 3,285 7.2 -30.6°
Reaches altitude 10° 03:20:24 10° 6° (N) 2,340 6.3 -30.2°
Enters shadow 03:22:42 25° 353° (N) 1,521 5.1 -29.9°
